Regional Weather Roundup
Issued by NWS

Home | Current Version | Previous Version | Graphics & Text | Print | Product List | Glossary On
Versions: 1 2 3 4 5 6 7 8 9 10 11 12 13 14 15 16 17 18 19 20 21 22 23 24 25 26 27 28 29 30 31 32 33 34 35 36 37 38 39 40 41 42 43 44 45 46 47 48 49 50
000
ASUS43 KLOT 302208
RWRIL

ILLINOIS REGIONAL WEATHER ROUNDUP
NATIONAL WEATHER SERVICE CHICAGO/ROMEOVILLE IL
500 PM CDT THU JUL 30 2015

NOTE: "FAIR" INDICATES FEW OR NO CLOUDS BELOW 12,000 FEET WITH NO
SIGNIFICANT WEATHER AND/OR OBSTRUCTIONS TO VISIBILITY.

* THESE STATIONS ARE NOT UNDER NWS QUALITY CONTROL. THEY ALSO MAY NOT
  REPORT WEATHER SUCH AS PRECIPITATION OR FOG.

ILZ001-002-007-009-015-016-024-302300-
NORTHWEST ILLINOIS

CITY           SKY/WX    TMP DP  RH WIND       PRES   REMARKS
MOLINE         SUNNY     89  60  37 W12G21    30.06F HX  89
STERLING*      SUNNY     88  64  45 W12       30.02F HX  89
SAVANNA*       SUNNY     87  57  35 W10       30.05S HX  86
$$

ILZ003-004-008-010-011-017-018-302300-
NORTH CENTRAL ILLINOIS

CITY           SKY/WX    TMP DP  RH WIND       PRES   REMARKS
ROCKFORD       MOSUNNY   87  55  33 W17G23    30.04F HX  85
FREEPORT*      SUNNY     84  60  44 W10G16    30.06F HX  84
ROCHELLE*      SUNNY     85  61  44 W15G21    30.06S HX  85
DE KALB*       SUNNY     85  57  38 W16G24    30.05F HX  84
PERU*          SUNNY     85  58  39 W10G16    30.06F HX  84
$$

ILZ005-006-012>014-019>023-302300-
NORTHEAST ILLINOIS

CITY           SKY/WX    TMP DP  RH WIND       PRES   REMARKS
CHICAGO-OHARE  MOSUNNY   87  53  31 W14G24    30.01F HX  85
CHICAGO-MIDWAY MOSUNNY   89  51  27 W15       30.02F HX  86
AURORA         SUNNY     85  60  42 W15       30.05S HX  85
LANSING*       SUNNY     87  51  28 NW9G16    30.03S HX  84
JOLIET*        SUNNY     87  60  39 NW6       30.04F HX  86
WAUKEGAN       SUNNY     85  55  35 SW8       30.00F HX  83
DUPAGE AIRPORT SUNNY     86  53  32 NW15G22   30.03F HX  84
KANKAKEE*      SUNNY     86  61  43 W12       30.06S HX  86
WHEELING       SUNNY     87  51  28 W13G22    30.03S HX  85
MORRIS*        SUNNY     85  63  48 W12       30.04F HX  85
ROMEOVILLE*    SUNNY     85  55  35 W15G21    30.04F HX  84
NORTHERLY ISL    N/A     87  46  24 W13         N/A  HX  84
$$

LMZ740>746-302300-
SOUTHERN LAKE MICHIGAN

STATION/POSITION SKY/WX   TEMP    WIND        PRES    VSBY  WAVE
                          AIR SEA DIR/SP/G                  HT/PER
                          (F)     (DEG/KT/KT) (MB)    (MI)  (FT/S)
HARRISON CRIB              83     280/ 12/ 14   N/A
BURNHAM HARBOR             87     280/ 12/ 16   N/A
CALUMET HARBOR             87     240/  5/ 14   N/A
BURNS HARBOR               85      60/  1/  3 1017.3F
MICHIGAN CITY              79     210/  4/  4   N/A
MICHIGAN CITY 6N           78 76  200/  4/  4   N/A           1
ST. JOSEPH                 76 74  250/  6/  8   N/A           2/ 4
$$

ILZ025>027-034>036-040-047-049-050-058-095>099-302300-
WEST-CENTRAL ILLINOIS

CITY           SKY/WX    TMP DP  RH WIND       PRES   REMARKS
QUINCY         SUNNY     87  60  40 W12       30.12F HX  87
GALESBURG*     SUNNY     85  64  50 W12       30.09F HX  86
MACOMB*        SUNNY     86  64  47 W12G17    30.12F HX  87
JACKSONVILLE*  SUNNY     89  65  46 W9        30.10F HX  90
PITTSFIELD*    SUNNY     88  59  38 W5        30.13F HX  87
$$

ILZ028>032-037-038-041>044-048-051>054-059>061-302300-
CENTRAL ILLINOIS

CITY           SKY/WX    TMP DP  RH WIND       PRES   REMARKS
PONTIAC        SUNNY     84  66  54 W9        30.07F HX  86
BLOOMINGTON    SUNNY     88  63  43 W8        30.10F HX  89
DECATUR        SUNNY     88  59  37 W10       30.09F HX  87
PEORIA         SUNNY     89  61  38 W10       30.08F HX  89
LACON*         SUNNY     86  61  43 W8        30.05F HX  86
LINCOLN*       SUNNY     90  58  33 W8        30.07F HX  88
SPRINGFIELD    SUNNY     87  63  44 W13       30.10F HX  88
TAYLORVILLE    MOSUNNY   84  64  51 W8        30.10F HX  86
$$

ILZ033-039-045-046-055>057-062-063-302300-
EAST-CENTRAL ILLINOIS

CITY           SKY/WX    TMP DP  RH WIND       PRES   REMARKS
CHAMPAIGN      SUNNY     85  64  49 W9        30.09F HX  86
DANVILLE*      SUNNY     83  62  48 NW8       30.05F HX  83
RANTOUL*       SUNNY     87  61  42 W10       30.08F HX  87
MATTOON        SUNNY     87  59  38 NW13      30.08F HX  86
PARIS*         SUNNY     86  62  44 NW10      30.09F HX  86
$$

ILZ079-100>102-302300-
SOUTHWEST ILLINOIS

CITY           SKY/WX    TMP DP  RH WIND       PRES   REMARKS
ALTON          MOSUNNY   84  63  48 NW9       30.12F HX  85
BELLEVILLE     MOSUNNY   89  63  41 VRB3      30.10F HX  90
CAHOKIA*       MOSUNNY   91  53  27 N9        30.11F HX  88
SPARTA*        MOSUNNY   87  60  40 N5        30.12F HX  86
$$

ILZ064>066-069>071-074>076-080>082-084>086-088>090-092>094-302300-
SOUTH-CENTRAL ILLINOIS

CITY           SKY/WX    TMP DP  RH WIND       PRES   REMARKS
CARBONDALE     SUNNY     88  60  38 N7        30.10F HX  87
CAIRO*         SUNNY     86  65  49 N6        30.09F HX  87
EFFINGHAM*     MOSUNNY   86  55  34 W9        30.11F HX  84
MARION         MOSUNNY   88  61  40 N9        30.10F HX  88
MT. VERNON     MOSUNNY   88  61  40 CALM      30.11F HX  88
CENTRALIA*     MOSUNNY   87  57  35 NW7       30.10F HX  86
SALEM*         MOSUNNY   87  60  40 NW5       30.11F HX  87
METROPOLIS*    SUNNY     86  64  48 N5        30.09F HX  87
$$

ILZ067-068-072-073-078-083-087-091-302300-
SOUTHEAST ILLINOIS

CITY           SKY/WX    TMP DP  RH WIND       PRES   REMARKS
LAWRENCEVILLE  MOSUNNY   87  61  41 NW10      30.08F HX  87
FLORA*         MOSUNNY   85  61  44 NW5       30.10F HX  85
FAIRFIELD*     PTSUNNY   85  63  48 N6        30.09F HX  86
HARRISBURG*    SUNNY     86  60  40 N5        30.10F HX  86
ROBINSON*      SUNNY     85  63  47 NW6       30.09F HX  86
CARMI*         MOSUNNY   85  58  39 CALM      30.08F HX  85
$$

ABBREVIATIONS USED IN REMARKS
   TC - TEMPERATURE IN CELSIUS
  WCI - WIND CHILL INDEX
   HX - HEAT INDEX
  VSB - VISIBILITY
$$



USA.gov is the U.S. government's official web portal to all federal, state and local government web resources and services.